OneWeb SL0592

operational
NORAD ID: 54658 Int'l Des: 2022-166 Owner: ONEWEBN Country: UK Constellation: oneweb
LEOCIRCULARPOLARONEWEB_TYPE

OneWeb SL0592について

説明を読み込み中...

リアルタイム位置

3D地球を読み込み中...

次回通過

高度履歴

Altitude vs Time

uPlot chart will show altitude changes over time

軌道要素

1 54658U 22166S 25299.25895917 .00000077 00000-0 15501-3 0 9997
2 54658 87.9178 290.6211 0001809 85.3579 274.7761 13.21823275140537
Epoch: Oct 26, 2025 • Age: 7 hours

現在のステータス

高度 1207.9 km
速度 7.25 km/s
衛星直下点 -85.83°S, 89.99°W
打ち上げ日 Dec 8, 2022
運用期間 2.8 years
タイプ internet

技術仕様

分類 Payload
質量 148.00 kg
乾燥質量 140.00 kg
総質量 148.00 kg
長さ 1.30 m
直径 1.00 m
スパン 5.00 m
形状 Trapezoid+2 pan
製造者 ONEWUS
バスタイプ ARROW
フェーズステータス In Orbit
所有者/国 ONEWEBN/UK

大規模コンステレーション

Loading constellations...